Regional Weather Roundup
Issued by NWS Little Rock, AR

Home | Current Version | Previous Version | Graphics & Text | Print | Product List | Glossary On
Versions: 1 2 3 4 5 6 7 8 9 10 11 12 13 14 15 16 17 18 19 20 21 22 23 24 25 26 27 28 29 30 31 32
000
ASUS44 KLZK 201205
RWRLZK

WEATHER ROUNDUP FOR ARKANSAS
NATIONAL WEATHER SERVICE LITTLE ROCK AR
600 AM CST TUE FEB 20 2018

NOTE: "FAIR" INDICATES FEW OR NO CLOUDS BELOW 12,000 FEET WITH NO
SIGNIFICANT WEATHER AND/OR OBSTRUCTIONS TO VISIBILITY.

ARZ001-003-010-029-201300-
NORTHWEST ARKANSAS

CITY           SKY/WX    TMP DP  RH WIND       PRES   REMARKS
FAYETTEVILLE   CLOUDY    67  63  87 S17G24    29.86S
6HR MIN TEMP:  65; 6HR MAX TEMP:  67; 6HR PCP: TRACE;

FORT SMITH     CLOUDY    73  63  70 S18G28    29.88R
6HR MIN TEMP:  71; 6HR MAX TEMP:  73; 6HR PCP: TRACE;

HARRISON       CLOUDY    63  62  97 S10       29.92R
6HR MIN TEMP:  63; 6HR MAX TEMP:  68;

BENTONVILLE    CLOUDY    68  62  81 S16G28    29.87S
6HR MIN TEMP:  66; 6HR MAX TEMP:  68; 6HR PCP: TRACE;

ROGERS         CLOUDY    67  61  81 S17G24    29.86S
6HR MIN TEMP:  66; 6HR MAX TEMP:  67; 6HR PCP: TRACE;

SILOAM SPGS    CLOUDY    68  62  81 S20       29.85S
6HR MIN TEMP:  64; 6HR MAX TEMP:  68; 6HR PCP: TRACE;

HIGHFILL       CLOUDY    68  63  83 S20G26    29.85S
SPRINGDALE     CLOUDY    68  64  88 S20G28    29.88
$$

ARZ004-005-016-201300-
NORTH CENTRAL ARKANSAS

CITY           SKY/WX    TMP DP  RH WIND       PRES   REMARKS
BATESVILLE     CLOUDY    67  61  81 S10G24    30.02R
6HR MIN TEMP:  67; 6HR MAX TEMP:  70; 6HR PCP: TRACE;

FLIPPIN        LGT RAIN  66  61  84 S10G18    29.94R
6HR MIN TEMP:  66; 6HR MAX TEMP:  70; 6HR PCP: TRACE;

MTN HOME       LGT RAIN  66  61  84 SW13G22   29.93S
6HR MIN TEMP:  65; 6HR MAX TEMP:  69; 6HR PCP:  0.01;

$$

ARZ040-041-201300-
WEST CENTRAL ARKANSAS

CITY           SKY/WX    TMP DP  RH WIND       PRES   REMARKS
MENA           CLOUDY    70  70 100 S9G26     29.94F
MOUNT IDA      LGT RAIN  67  66  97 VRB6      29.95R
6HR MIN TEMP:  67; 6HR MAX TEMP:  71; 6HR PCP:  0.62;

$$

ARZ009-017-025-026-028-201300-
NORTHEAST ARKANSAS

CITY           SKY/WX    TMP DP  RH WIND       PRES   REMARKS
JONESBORO      FAIR      64  63  96 S13       30.04R
6HR MIN TEMP:  64; 6HR MAX TEMP:  67;

NEWPORT          N/A     65  62  90 S16       30.04R
6HR MIN TEMP:  64; 6HR MAX TEMP:  67; 6HR PCP: TRACE;

WALNUT RIDGE   MOCLDY    65  62  90 S17       30.03R
6HR MIN TEMP:  63; 6HR MAX TEMP:  66; 6HR PCP: TRACE;

BLYTHEVILLE    FAIR      66  62  87 S13G22    30.07R
6HR MIN TEMP:  66; 6HR MAX TEMP:  69;

$$

ARZ022-023-033-042-044-201300-
CENTRAL ARKANSAS

CITY           SKY/WX    TMP DP  RH WIND       PRES   REMARKS
LITTLE ROCK    CLOUDY    66  62  87 S14       30.02R
6HR MIN TEMP:  66; 6HR MAX TEMP:  70;

N LITTLE ROCK    N/A     65  62  88 S9        29.98R
6HR MIN TEMP:  65; 6HR MAX TEMP:  69;

JACKSONVILLE   CLOUDY    68  63  83 S9        30.02R
6HR MIN TEMP:  67; 6HR MAX TEMP:  71; 6HR PCP: TRACE;

SEARCY         CLOUDY    66  66 100 S8        30.04R
6HR MIN TEMP:  65; 6HR MAX TEMP:  69;

HOT SPRINGS    CLOUDY    68  64  87 S8        30.01R
6HR MIN TEMP:  68; 6HR MAX TEMP:  70;

RUSSELLVILLE   HVY RAIN  65  65 100 CALM      29.95S FOG
6HR MIN TEMP:  65; 6HR MAX TEMP:  72;

CLINTON        LGT RAIN  64  63  94 SE6       29.99R
$$

ARZ036-201300-
EAST ARKANSAS

CITY           SKY/WX    TMP DP  RH WIND       PRES   REMARKS
WEST MEMPHIS   MOCLDY    64  63  96 S12       30.08R
6HR MIN TEMP:  64; 6HR MAX TEMP:  68;

$$

ARZ050-053-066-070-073-201300-
SOUTHWEST ARKANSAS

CITY           SKY/WX    TMP DP  RH WIND       PRES   REMARKS
ARKADELPHIA    CLOUDY    66  63  90 S5        30.02R
6HR MIN TEMP:  65; 6HR MAX TEMP:  70;

CAMDEN         FAIR      68  61  77 S12G18    30.02R
TEXARKANA      CLOUDY    68  64  87 S9        29.99R
6HR MIN TEMP:  68; 6HR MAX TEMP:  70; 6HR PCP:  0.01;

EL DORADO      FAIR      67  65  93 S12       30.03R
6HR MIN TEMP:  66; 6HR MAX TEMP:  70;

DE QUEEN       CLOUDY    69  67  93 S5        29.95R
6HR MIN TEMP:  69; 6HR MAX TEMP:  71; 6HR PCP: TRACE;

$$

ARZ056-057-069-201300-
SOUTHEAST ARKANSAS

CITY           SKY/WX    TMP DP  RH WIND       PRES   REMARKS
PINE BLUFF     CLOUDY    68  63  84 S15G26    30.05R
6HR MIN TEMP:  66; 6HR MAX TEMP:  68;

STUTTGART      MOCLDY    66  63  90 S16       30.05R
6HR MIN TEMP:  65; 6HR MAX TEMP:  68;

MONTICELLO     CLOUDY    69  65  86 S13G20    30.06S
6HR MIN TEMP:  65; 6HR MAX TEMP:  69;


$$






USA.gov is the U.S. government's official web portal to all federal, state and local government web resources and services.